This demonstration page uses our WeatherBlox Daily Observations layout. Learn more.

Left ArrowRight Arrow

36.19886, -115.1175

Hourly Observations for January 27, 2021

Temp ( °F °C ) Dew Point ( °F °C ) Humidity (%) Winds ( mph kmh ) Pressure ( in mb ) Visibility ( mi km ) Precip ( " mm )
12:53 am 00:53 Clear 38 3.3 30 -1.1 73 73 ENE 5 7 30.16 1021 10 16.0934 0 0
1:53 am 01:53 Partly Cloudy 38 3.3 31 -0.6 76 76 ENE 7 11 30.18 1022 10 16.0934 0 0
2:53 am 02:53 Cloudy 39 3.9 31 -0.6 73 73 NE 6 9 30.18 1022 10 16.0934 0 0
3:53 am 03:53 Cloudy 39 3.9 31 -0.6 73 73 ENE 8 13 30.18 1022 10 16.0934 0 0
4:53 am 04:53 Cloudy 38 3.3 31 -0.6 76 76 ENE 6 9 30.18 1022 10 16.0934 0 0
5:53 am 05:53 Cloudy 39 3.9 30 -1.1 70 70 E 9 15 30.19 1022 10 16.0934 0 0
6:53 am 06:53 Cloudy 38 3.3 30 -1.1 73 73 E 7 11 30.21 1023 10 16.0934 0 0
7:53 am 07:53 Cloudy 40 4.4 30 -1.1 68 68 ESE 8 13 30.22 1023 10 16.0934 0 0
8:53 am 08:53 Cloudy 42 5.6 30 -1.1 62 62 SE 10 17 30.24 1024 10 16.0934 0 0
9:53 am 09:53 Cloudy 43 6.1 30 -1.1 60 60 ESE 10 17 30.27 1025 10 16.0934 0 0
10:53 am 10:53 Cloudy 45 7.2 30 -1.1 56 56 ESE 9 15 30.26 1025 10 16.0934 0 0
11:53 am 11:53 Cloudy 46 7.8 30 -1.1 54 54 ENE 8 13 30.24 1024 10 16.0934 0 0
12:53 pm 12:53 Cloudy 48 8.9 30 -1.1 50 50 ESE 10 17 30.21 1023 10 16.0934 0 0
1:53 pm 13:53 Cloudy 48 8.9 30 -1.1 50 50 E 15 24 30.18 1022 10 16.0934 0 0
2:53 pm 14:53 Cloudy 49 9.4 30 -1.1 48 48 ENE 14 22 30.17 1022 10 16.0934 0 0
3:53 pm 15:53 Cloudy 48 8.9 29 -1.7 48 48 E 13 20 30.17 1022 10 16.0934 0 0
4:53 pm 16:53 Cloudy 48 8.9 27 -2.8 44 44 E 9 15 30.17 1022 10 16.0934 0 0
5:53 pm 17:53 Partly Cloudy 46 7.8 28 -2.2 50 50 ENE 8 13 30.17 1022 10 16.0934 0 0
6:53 pm 18:53 Mostly Cloudy 46 7.8 29 -1.7 51 51 NE 5 7 30.18 1022 10 16.0934 0 0
7:53 pm 19:53 Mostly Clear 45 7.2 29 -1.7 54 54 Calm 30.18 1022 10 16.0934 0 0
8:53 pm 20:53 Partly Cloudy 44 6.7 31 -0.6 60 60 SE 5 7 30.18 1022 10 16.0934 0 0
9:53 pm 21:53 Mostly Clear 44 6.7 30 -1.1 58 58 SSE 3 6 30.17 1022 10 16.0934 0 0
10:53 pm 22:53 Mostly Cloudy 43 6.1 30 -1.1 60 60 SE 3 6 30.17 1022 10 16.0934 0 0
11:53 pm 23:53 Clear 43 6.1 29 -1.7 58 58 SSE 5 7 30.16 1021 10 16.0934 0 0

Powered by AerisWeather